Temp
-19 -20 -20 -20 -21 -21 -20 -19 -19 -18 -18 -17 -16 -16 -16 -16 -16 -16 -16 -17 -16 -15 -16 -16 -16 -15 -15 -14 -14 -14 -14 -13 -14 -13 -13 -14 -14 -14 -14 -14 -15 -15 -15 -16 -16
-20 -20 -20 -20 -20 -21 -20 -19 -17 -19 -18 -17 -17 -17 -16 -16 -16 -16 -18 -17 -16 -16 -16 -16 -16 -16 -15 -15 -15 -15 -14 -14 -14 -13 -14 -14 -14 -14 -14 -14 -15 -15 -15 -15 -15
-19 -20 -20 -20 -21 -20 -20 -19 -18 -18 -18 -18 -17 -17 -17 -17 -16 -18 -18 -17 -16 -17 -17 -16 -16 -16 -15 -15 -15 -15 -15 -15 -14 -14 -14 -15 -15 -14 -15 -15 -15 -15 -16 -16 -16
-19 -20 -20 -21 -21 -20 -20 -20 -19 -18 -18 -18 -17 -17 -17 -17 -17 -18 -18 -17 -17 -17 -17 -17 -17 -17 -16 -16 -15 -15 -15 -14 -14 -14 -15 -15 -15 -15 -15 -15 -16 -16 -17 -17 -16
-19 -20 -20 -20 -21 -20 -20 -20 -19 -19 -18 -18 -17 -17 -17 -18 -18 -18 -18 -18 -18 -18 -18 -18 -17 -17 -17 -17 -16 -15 -15 -15 -14 -15 -16 -16 -16 -15 -15 -15 -16 -16 -17 -17 -16
-19 -19 -19 -20 -21 -20 -20 -20 -20 -19 -18 -18 -18 -18 -18 -18 -18 -18 -18 -18 -18 -18 -18 -18 -18 -18 -17 -17 -16 -16 -16 -15 -15 -15 -16 -16 -16 -15 -15 -15 -16 -16 -16 -17 -16
-19 -19 -19 -20 -20 -20 -20 -20 -20 -19 -19 -19 -18 -18 -18 -18 -18 -18 -18 -18 -18 -19 -19 -19 -18 -18 -17 -17 -16 -16 -16 -16 -15 -15 -16 -16 -17 -16 -15 -15 -15 -15 -16 -16 -16
-19 -19 -19 -19 -20 -20 -20 -20 -20 -20 -19 -19 -19 -18 -19 -18 -18 -18 -18 -19 -19 -19 -18 -18 -18 -18 -17 -17 -17 -16 -16 -16 -16 -16 -16 -16 -16 -15 -15 -15 -15 -15 -15 -16 -16
-19 -19 -19 -19 -19 -19 -20 -20 -19 -19 -19 -19 -19 -19 -18 -19 -19 -19 -18 -19 -19 -19 -19 -19 -19 -18 -18 -17 -17 -17 -16 -16 -16 -16 -17 -17 -17 -16 -15 -15 -15 -15 -15 -15 -15
-19 -19 -19 -19 -19 -19 -19 -19 -19 -19 -19 -19 -19 -19 -19 -19 -19 -19 -19 -19 -19 -19 -19 -19 -19 -18 -18 -18 -17 -17 -17 -16 -16 -16 -17 -17 -16 -16 -16 -16 -16 -16 -16 -16 -15
-19 -19 -19 -19 -19 -19 -19 -19 -19 -19 -19 -19 -19 -18 -19 -19 -19 -19 -19 -19 -19 -19 -19 -19 -18 -18 -18 -19 -19 -18 -18 -18 -17 -17 -17 -17 -16 -16 -16 -16 -16 -16 -16 -16 -15
-20 -20 -19 -19 -19 -19 -19 -19 -19 -19 -19 -20 -19 -19 -19 -19 -19 -19 -19 -19 -19 -19 -19 -18 -18 -19 -19 -19 -19 -19 -19 -18 -18 -18 -18 -18 -17 -17 -16 -16 -16 -16 -16 -16 -16
-20 -20 -20 -19 -19 -19 -20 -20 -19 -19 -19 -19 -19 -19 -19 -19 -19 -19 -19 -19 -19 -19 -19 -19 -19 -19 -19 -19 -19 -19 -19 -19 -19 -18 -18 -18 -17 -17 -17 -17 -16 -16 -16 -16 -16
-20 -20 -20 -20 -20 -20 -20 -20 -19 -19 -19 -20 -19 -19 -19 -19 -19 -19 -19 -19 -19 -19 -19 -19 -19 -20 -20 -20 -20 -19 -19 -19 -19 -19 -19 -18 -17 -17 -17 -17 -16 -16 -16 -16 -16
-20 -20 -20 -20 -20 -20 -20 -20 -20 -19 -19 -19 -19 -19 -19 -19 -19 -19 -19 -19 -19 -19 -19 -19 -19 -19 -20 -20 -20 -19 -19 -19 -19 -19 -19 -18 -18 -17 -17 -16 -16 -16 -16 -16 -16
-20 -20 -20 -20 -20 -20 -20 -20 -20 -20 -19 -19 -19 -19 -19 -19 -19 -19 -19 -19 -19 -19 -19 -19 -20 -20 -20 -20 -19 -19 -20 -20 -19 -19 -19 -18 -18 -16 -16 -16 -16 -16 -16 -16 -16
-19 -20 -20 -20 -20 -20 -20 -20 -20 -20 -20 -19 -19 -19 -19 -19 -18 -19 -19 -19 -19 -19 -19 -19 -19 -19 -19 -19 -19 -19 -19 -19 -19 -18 -18 -18 -18 -16 -16 -16 -16 -16 -16 -16 -16
-19 -20 -20 -20 -20 -20 -21 -21 -20 -20 -20 -20 -19 -19 -19 -19 -19 -18 -19 -19 -19 -19 -19 -19 -19 -19 -19 -19 -19 -19 -19 -19 -18 -18 -17 -17 -17 -16 -16 -16 -16 -17 -17 -17 -17
-19 -19 -20 -20 -20 -20 -21 -21 -21 -20 -20 -20 -20 -20 -20 -20 -19 -19 -19 -19 -19 -19 -19 -19 -19 -19 -19 -19 -19 -19 -19 -19 -20 -19 -19 -18 -17 -17 -16 -17 -17 -17 -17 -17 -17
-20 -20 -20 -20 -21 -21 -21 -22 -22 -21 -21 -20 -20 -20 -20 -20 -20 -20 -20 -19 -18 -19 -19 -19 -19 -19 -19 -19 -19 -19 -19 -20 -19 -19 -18 -17 -17 -17 -17 -17 -17 -17 -18 -18 -18
-20 -21 -21 -20 -21 -21 -21 -22 -22 -22 -22 -21 -21 -21 -22 -20 -20 -20 -20 -20 -19 -19 -19 -19 -19 -19 -19 -18 -19 -19 -19 -19 -19 -19 -18 -18 -17 -17 -17 -17 -18 -18 -18 -18 -18
-21 -21 -21 -21 -21 -21 -22 -22 -22 -22 -23 -22 -22 -22 -21 -21 -21 -21 -20 -20 -20 -20 -20 -19 -19 -19 -19 -19 -19 -19 -19 -19 -19 -18 -18 -18 -17 -17 -17 -17 -18 -18 -18 -18 -18
-21 -22 -22 -22 -22 -22 -22 -23 -22 -23 -23 -23 -22 -22 -22 -22 -22 -22 -21 -21 -20 -20 -20 -20 -20 -20 -19 -19 -18 -19 -19 -19 -19 -19 -18 -18 -17 -18 -18 -18 -18 -18 -18 -18 -18
-21 -22 -22 -22 -22 -22 -23 -23 -23 -23 -24 -23 -23 -23 -23 -23 -23 -21 -21 -21 -21 -21 -20 -20 -21 -20 -19 -19 -19 -19 -19 -19 -19 -19 -18 -18 -18 -18 -19 -19 -19 -19 -19 -18 -18
-22 -22 -22 -23 -23 -23 -23 -23 -23 -24 -24 -24 -24 -24 -23 -23 -23 -23 -22 -21 -22 -21 -21 -21 -20 -21 -21 -20 -20 -19 -19 -19 -19 -19 -19 -19 -19 -19 -19 -19 -19 -19 -19 -19 -18
-22 -23 -23 -23 -24 -24 -24 -24 -24 -24 -24 -24 -24 -24 -24 -24 -24 -23 -24 -23 -22 -21 -21 -21 -21 -21 -20 -21 -20 -20 -20 -20 -19 -19 -19 -19 -19 -19 -19 -19 -19 -19 -19 -19 -19
-23 -23 -24 -24 -24 -25 -25 -25 -25 -25 -25 -25 -25 -25 -25 -24 -25 -24 -24 -24 -23 -22 -22 -21 -21 -21 -21 -21 -21 -20 -20 -20 -20 -20 -19 -19 -19 -19 -19 -19 -19 -19 -19 -20 -20
Height
5639 5638 5638 5639 5641 5644 5648 5652 5654 5655 5658 5661 5665 5669 5675 5679 5684 5691 5698 5701 5703 5707 5713 5717 5722 5726 5730 5735 5738 5742 5746 5752 5757 5759 5761 5762 5768 5773 5778 5781 5784 5788 5790 5792 5794
5636 5634 5633 5634 5636 5638 5642 5645 5648 5651 5653 5655 5658 5662 5668 5672 5678 5686 5691 5692 5697 5702 5708 5712 5716 5719 5724 5727 5733 5736 5741 5747 5750 5753 5755 5759 5764 5770 5775 5778 5780 5784 5786 5788 5791
5633 5631 5629 5630 5631 5634 5637 5640 5641 5644 5647 5649 5652 5656 5660 5665 5672 5679 5680 5686 5691 5697 5701 5705 5709 5713 5717 5722 5727 5730 5735 5739 5744 5746 5748 5753 5758 5766 5770 5773 5776 5782 5783 5785 5787
5631 5628 5626 5626 5628 5630 5633 5635 5632 5639 5642 5645 5648 5652 5655 5659 5666 5670 5674 5680 5686 5691 5695 5700 5705 5709 5712 5717 5721 5724 5729 5734 5738 5740 5743 5747 5754 5761 5764 5769 5772 5776 5779 5780 5782
5628 5626 5625 5624 5624 5626 5629 5632 5632 5633 5637 5639 5644 5647 5650 5654 5659 5664 5668 5674 5681 5686 5691 5695 5698 5702 5706 5710 5713 5717 5722 5728 5732 5734 5737 5742 5748 5755 5759 5764 5767 5771 5774 5776 5778
5628 5624 5623 5622 5622 5624 5625 5628 5629 5632 5633 5636 5639 5642 5646 5650 5653 5658 5663 5670 5677 5682 5686 5690 5693 5696 5699 5702 5705 5711 5716 5720 5725 5729 5731 5736 5741 5750 5753 5758 5763 5767 5770 5772 5774
5629 5624 5621 5620 5620 5622 5623 5625 5626 5628 5630 5633 5636 5639 5642 5644 5648 5653 5659 5665 5670 5675 5680 5683 5687 5689 5693 5696 5699 5704 5709 5714 5718 5720 5724 5729 5735 5741 5748 5753 5758 5762 5766 5769 5771
5628 5624 5621 5619 5618 5620 5622 5624 5625 5625 5626 5629 5633 5635 5639 5641 5645 5649 5654 5660 5665 5669 5673 5676 5679 5682 5685 5690 5694 5698 5703 5707 5710 5713 5717 5721 5729 5735 5742 5747 5752 5757 5761 5764 5767
5627 5624 5621 5619 5617 5617 5618 5621 5622 5624 5624 5625 5629 5633 5635 5639 5642 5646 5651 5655 5660 5663 5667 5672 5673 5676 5681 5685 5688 5690 5695 5700 5705 5708 5713 5718 5725 5730 5736 5740 5746 5751 5755 5758 5761
5623 5623 5621 5618 5616 5615 5616 5617 5619 5622 5622 5623 5626 5631 5633 5636 5638 5642 5647 5651 5655 5659 5663 5666 5668 5671 5676 5680 5685 5691 5695 5699 5703 5706 5708 5714 5721 5726 5730 5735 5740 5744 5748 5751 5754
5621 5620 5619 5617 5615 5614 5614 5615 5618 5619 5620 5621 5623 5625 5629 5632 5634 5639 5643 5647 5650 5654 5658 5662 5664 5668 5677 5679 5682 5684 5687 5692 5697 5701 5705 5709 5714 5719 5723 5729 5734 5738 5742 5745 5749
5619 5618 5617 5616 5614 5613 5611 5612 5614 5616 5617 5617 5620 5622 5625 5628 5631 5634 5639 5643 5646 5651 5654 5657 5662 5667 5668 5670 5673 5676 5680 5684 5689 5692 5698 5702 5707 5712 5717 5723 5727 5731 5735 5738 5742
5619 5616 5614 5613 5612 5611 5610 5611 5611 5612 5615 5615 5617 5619 5622 5625 5628 5631 5634 5638 5642 5645 5650 5654 5662 5661 5662 5664 5668 5672 5675 5680 5684 5688 5691 5696 5699 5704 5709 5713 5718 5722 5727 5731 5735
5617 5615 5612 5610 5611 5609 5608 5607 5608 5609 5610 5612 5613 5615 5618 5620 5624 5627 5629 5633 5636 5641 5644 5648 5652 5655 5656 5659 5664 5668 5673 5674 5678 5681 5683 5686 5688 5694 5700 5704 5709 5714 5718 5722 5726
5617 5614 5611 5608 5606 5606 5606 5604 5605 5606 5606 5609 5609 5611 5614 5616 5620 5623 5626 5629 5632 5635 5639 5646 5647 5650 5650 5658 5659 5663 5665 5667 5669 5671 5674 5676 5677 5685 5690 5696 5703 5707 5711 5715 5719
5616 5612 5609 5607 5605 5603 5603 5604 5602 5603 5601 5603 5605 5606 5608 5611 5614 5616 5619 5624 5627 5629 5632 5634 5639 5641 5647 5650 5651 5655 5657 5660 5661 5663 5661 5671 5672 5680 5685 5692 5694 5699 5703 5707 5711
5614 5610 5607 5606 5603 5600 5598 5600 5601 5599 5599 5599 5600 5601 5602 5605 5609 5612 5614 5617 5620 5624 5626 5629 5632 5635 5639 5641 5642 5645 5650 5651 5654 5654 5659 5667 5666 5676 5680 5685 5689 5692 5696 5699 5702
5613 5609 5605 5602 5601 5599 5598 5597 5595 5595 5594 5594 5596 5596 5598 5599 5602 5605 5608 5610 5613 5615 5620 5622 5625 5629 5633 5635 5639 5642 5645 5645 5646 5649 5655 5658 5656 5670 5674 5678 5682 5685 5689 5692 5696
5611 5607 5602 5599 5596 5595 5594 5593 5591 5590 5589 5588 5588 5591 5592 5594 5596 5598 5600 5603 5606 5609 5613 5615 5617 5621 5625 5628 5631 5632 5631 5642 5641 5642 5645 5649 5652 5660 5666 5670 5674 5678 5682 5685 5688
5610 5604 5600 5597 5594 5592 5591 5589 5586 5585 5584 5583 5583 5583 5585 5587 5589 5590 5591 5594 5597 5601 5603 5607 5611 5614 5616 5619 5621 5623 5632 5631 5631 5633 5636 5640 5644 5652 5659 5663 5666 5670 5673 5676 5679
5606 5601 5596 5593 5588 5585 5582 5582 5581 5578 5578 5578 5577 5576 5577 5577 5580 5581 5583 5587 5586 5590 5594 5597 5600 5603 5607 5609 5613 5617 5618 5620 5624 5626 5629 5633 5637 5643 5650 5655 5659 5662 5665 5668 5671
5600 5596 5592 5587 5583 5578 5574 5571 5574 5572 5570 5569 5570 5569 5569 5570 5569 5570 5573 5576 5580 5582 5582 5588 5590 5591 5597 5600 5604 5607 5611 5614 5615 5619 5622 5625 5629 5634 5641 5647 5650 5653 5656 5659 5662
5592 5588 5584 5579 5576 5573 5571 5568 5565 5563 5561 5561 5561 5561 5561 5561 5560 5561 5563 5566 5569 5572 5575 5578 5578 5581 5586 5591 5594 5596 5602 5605 5609 5612 5612 5617 5621 5627 5631 5636 5640 5644 5646 5649 5651
5583 5579 5577 5573 5568 5565 5562 5558 5555 5553 5552 5550 5551 5551 5551 5551 5550 5551 5554 5556 5559 5562 5565 5567 5568 5572 5577 5581 5587 5588 5593 5597 5600 5601 5605 5608 5613 5619 5622 5627 5630 5632 5635 5637 5639
5573 5570 5564 5562 5559 5555 5551 5549 5545 5542 5543 5541 5541 5539 5538 5539 5541 5541 5542 5544 5547 5550 5553 5554 5558 5563 5566 5570 5572 5576 5581 5585 5589 5593 5595 5601 5604 5609 5612 5616 5618 5621 5624 5627 5628
5562 5559 5554 5550 5544 5541 5538 5539 5537 5533 5532 5532 5529 5529 5528 5528 5528 5529 5530 5532 5534 5539 5541 5544 5547 5551 5554 5559 5563 5565 5570 5574 5578 5583 5585 5589 5593 5598 5601 5605 5609 5611 5613 5615 5616
5551 5545 5542 5538 5534 5530 5528 5523 5522 5520 5520 5519 5518 5516 5517 5517 5516 5517 5519 5520 5522 5526 5529 5531 5536 5540 5542 5547 5551 5554 5560 5564 5568 5572 5576 5579 5586 5589 5591 5594 5598 5600 5602 5604 5605
Wind_Speed
27 24 27 30 28 31 29 23 24 25 27 27 31 32 34 37 39 40 35 33 37 38 36 37 35 37 37 39 39 38 38 32 29 36 40 39 35 31 25 25 25 25 25 26 25
22 22 23 23 22 26 30 25 23 23 24 25 28 30 32 34 36 37 31 37 38 36 33 34 34 34 35 36 37 37 35 29 32 38 41 38 35 30 27 25 26 25 25 23 24
20 21 20 21 20 22 26 27 27 22 23 23 26 28 29 32 34 35 39 39 39 35 33 33 34 33 33 34 34 34 33 30 33 41 42 37 35 31 30 28 25 22 23 22 25
20 20 17 18 19 19 23 29 36 22 24 23 24 26 27 30 32 36 38 37 36 33 31 30 29 29 30 32 33 34 32 31 35 41 41 37 35 30 31 29 26 25 25 27 27
20 18 16 15 18 20 22 27 30 23 25 23 24 24 24 26 29 32 36 37 35 32 29 26 27 27 28 30 32 33 34 34 38 42 41 38 36 33 34 31 28 26 26 23 27
20 18 17 15 18 18 20 22 24 18 23 22 22 22 22 24 28 30 35 36 32 30 27 26 24 27 30 33 35 33 33 37 41 44 43 42 40 35 36 32 30 28 28 27 28
22 20 17 13 13 15 16 20 24 18 6 18 19 20 20 25 26 28 32 33 33 31 28 27 27 30 30 34 37 35 36 39 44 46 45 43 42 40 38 33 29 25 26 26 27
19 19 18 15 13 15 14 16 18 19 9 16 19 19 20 24 24 27 29 30 31 30 31 30 30 33 34 35 36 38 39 41 45 47 47 47 43 40 37 35 32 26 25 25 27
19 17 18 16 15 16 18 16 15 13 11 16 19 18 24 22 23 25 28 28 30 30 29 29 31 33 33 34 37 40 41 42 44 47 44 44 42 41 39 38 34 30 27 27 27
18 17 16 17 15 17 17 16 14 13 15 16 20 19 21 22 25 27 28 29 29 29 29 30 31 31 31 33 33 33 34 37 40 44 45 42 38 39 42 38 34 33 31 28 28
19 17 18 16 16 13 15 13 13 11 14 11 23 22 22 23 25 26 28 29 30 30 28 27 28 25 17 21 27 31 34 34 36 39 42 41 39 41 41 37 34 32 31 30 30
20 19 19 18 17 15 13 12 11 11 12 4 21 23 24 25 26 27 28 30 30 28 28 28 21 21 24 26 29 31 34 35 36 38 39 41 41 41 40 37 36 35 34 33 32
18 18 19 18 17 18 13 13 13 11 13 14 12 26 27 27 27 26 27 28 28 29 28 26 17 24 28 29 30 31 32 32 33 34 36 38 42 42 40 39 39 38 36 35 34
17 18 21 16 14 15 13 12 14 11 15 14 17 24 28 28 28 27 29 30 30 28 28 28 26 28 28 29 29 30 28 30 32 34 36 38 44 43 41 40 40 38 37 36 35
19 17 18 14 12 15 14 13 14 15 18 18 17 22 30 32 29 28 29 30 29 28 29 23 27 29 33 25 27 28 30 32 33 35 38 41 45 44 43 40 37 37 35 35 35
21 17 16 15 15 15 14 14 17 17 17 20 17 18 22 33 34 33 32 32 30 31 30 31 30 32 28 29 31 31 33 34 36 39 45 40 43 41 40 36 37 36 35 35 34
27 21 18 18 16 15 14 15 17 20 20 18 19 19 22 27 34 37 36 34 34 32 32 32 32 32 32 34 37 36 35 38 40 45 43 38 44 38 37 36 36 36 36 36 35
26 25 22 20 20 18 16 15 16 18 19 22 20 20 21 22 28 35 39 39 37 37 34 34 36 33 32 35 35 35 36 41 41 43 41 41 46 38 37 36 35 36 36 35 32
24 26 25 23 21 22 20 16 18 21 21 17 22 24 22 21 22 22 32 42 44 40 37 37 37 35 35 35 37 39 43 35 39 40 41 42 43 39 37 36 35 33 32 31 30
26 26 27 27 25 23 22 20 19 20 19 20 18 22 28 30 27 25 25 25 39 45 44 42 40 35 37 39 42 41 37 39 41 43 42 43 42 38 36 35 34 33 31 31 32
28 26 29 27 30 27 24 22 23 23 24 22 23 22 20 27 33 34 33 27 28 29 40 49 47 41 42 42 42 42 43 43 42 43 42 41 40 38 35 33 33 31 32 33 34
30 30 28 29 30 31 28 25 24 24 26 27 25 27 27 25 27 31 34 34 31 27 27 31 43 49 45 45 42 41 43 43 44 42 43 41 41 40 35 32 32 33 35 34 35
33 32 29 28 30 33 33 29 27 26 26 30 29 28 29 29 36 34 25 29 31 37 29 30 33 37 44 50 48 42 41 46 46 43 43 44 42 40 38 36 35 33 34 33 34
36 34 31 29 30 31 34 32 30 30 28 28 31 33 32 34 35 34 37 27 29 36 37 35 33 31 36 40 46 47 46 42 43 45 45 46 44 41 38 37 37 39 40 41 41
38 37 35 33 32 31 31 34 31 31 31 28 28 30 36 37 36 37 39 42 34 36 37 38 43 41 38 34 35 40 45 47 47 43 41 42 43 42 44 41 43 42 41 41 42
40 38 37 35 34 34 34 34 37 34 33 32 31 31 30 38 39 40 39 39 46 41 40 41 39 38 42 44 41 38 39 41 44 49 49 48 44 41 42 43 44 44 40 36 38
42 41 40 36 35 35 36 38 39 41 40 38 37 37 36 35 35 43 41 40 41 41 45 44 42 41 41 39 36 42 40 36 39 40 39 45 44 41 39 39 37 32 36 37 38
Wind_Direction
296 287 272 271 270 256 253 252 258 254 246 241 238 237 235 232 232 233 230 228 232 236 236 238 236 238 237 237 237 236 236 235 226 227 230 230 226 224 226 228 231 231 236 240 241
304 294 279 273 267 252 248 247 249 256 249 239 238 236 234 232 229 229 221 228 233 234 233 236 236 234 235 233 237 235 235 228 222 226 229 231 227 223 226 229 229 233 240 247 244
308 299 285 274 261 265 248 245 249 254 252 243 239 237 234 231 227 217 221 226 231 230 232 233 235 235 235 236 232 233 230 219 220 225 228 225 227 221 222 226 233 238 244 248 243
319 311 295 275 265 259 249 252 255 231 241 237 237 235 232 229 225 218 220 224 229 230 231 233 237 235 232 235 235 233 227 219 216 225 229 225 224 224 225 226 232 235 240 245 235
331 319 309 295 271 262 254 261 263 289 242 232 234 234 230 226 224 217 220 222 226 228 231 232 232 231 228 229 230 230 224 216 214 220 226 225 221 221 226 226 229 230 236 239 234
340 323 315 304 273 270 256 262 275 283 237 234 230 230 229 220 220 214 218 220 222 226 230 233 232 228 225 225 226 224 221 213 214 220 220 223 223 219 225 225 228 230 234 238 233
340 335 318 310 281 277 280 267 271 278 255 231 236 230 225 222 218 214 215 215 217 220 222 225 224 224 222 224 225 220 216 214 214 216 221 221 220 220 226 230 231 229 234 235 232
330 339 330 310 292 274 280 275 283 290 289 246 232 228 221 224 216 212 213 214 215 219 222 223 222 225 223 223 223 221 216 214 216 220 218 218 220 221 225 229 232 229 233 236 233
316 324 333 319 294 282 276 279 282 283 280 240 230 225 229 217 212 213 211 211 213 216 222 225 228 232 229 225 223 224 221 218 218 221 222 223 218 220 226 231 234 232 233 238 235
315 313 324 327 307 290 279 273 273 279 286 243 226 224 229 218 212 210 210 212 214 219 220 223 228 233 230 232 236 237 234 229 224 226 226 224 223 223 227 233 235 238 235 236 236
331 310 307 318 320 298 275 260 268 267 270 270 228 218 224 222 215 213 212 210 215 219 222 228 233 243 248 236 232 232 230 229 228 231 230 228 223 224 228 230 234 236 236 237 236
339 334 304 301 318 320 281 260 265 262 269 252 232 220 219 224 220 215 217 219 221 223 227 231 237 236 232 228 229 230 231 229 228 229 229 224 223 225 228 231 233 235 237 237 237
332 333 326 300 296 310 296 252 248 267 270 271 240 227 221 220 224 220 218 220 224 228 231 236 227 234 231 230 231 233 233 234 235 236 234 228 225 226 226 225 228 232 232 235 235
335 339 331 317 298 299 299 268 248 269 264 264 250 226 222 221 224 225 223 221 220 224 228 226 217 221 227 234 235 237 239 238 239 236 235 230 228 224 224 224 226 229 232 233 234
330 339 337 332 312 301 294 272 237 270 267 257 251 228 223 223 223 224 226 226 226 223 226 228 225 221 228 231 237 234 235 237 236 237 236 231 233 220 221 220 224 229 231 233 234
340 318 324 322 319 301 294 291 251 262 271 258 257 244 233 229 226 224 223 225 225 225 224 222 221 225 226 228 235 233 229 236 240 236 235 231 236 224 224 223 225 228 231 233 236
354 337 310 304 308 307 290 288 274 269 280 257 254 253 239 232 230 228 229 230 230 232 230 231 229 227 224 229 232 233 229 231 238 242 244 237 238 229 224 226 228 232 234 235 234
342 345 336 312 293 297 306 293 284 281 282 271 268 260 246 239 236 232 222 230 232 232 230 232 234 235 235 236 241 243 241 241 242 248 246 239 240 233 232 229 230 233 238 240 241
332 331 332 331 314 291 286 300 290 278 276 271 260 261 252 259 250 245 235 232 232 233 232 235 236 234 234 237 237 238 236 239 242 244 247 248 244 240 235 237 237 236 238 241 244
331 325 321 324 322 315 298 281 285 284 276 266 258 259 254 257 254 251 249 242 229 233 231 231 236 235 236 234 235 238 236 235 236 241 245 247 244 242 240 242 242 241 239 239 241
335 328 319 315 313 312 307 294 277 275 276 269 262 255 262 266 255 255 253 251 249 241 230 228 227 230 233 237 242 240 237 235 239 243 246 249 251 248 246 245 247 246 244 243 243
329 327 320 313 308 306 305 297 290 274 268 269 265 263 257 238 261 254 245 250 245 249 254 234 235 229 229 232 238 239 238 240 243 247 251 253 253 255 255 253 250 250 250 249 249
323 319 313 310 305 303 304 302 294 285 271 263 260 259 262 257 240 250 248 251 246 239 237 251 246 241 238 236 232 233 235 239 244 246 248 251 254 254 258 258 258 256 255 252 251
318 316 311 304 299 297 296 297 292 284 278 272 266 257 253 258 257 245 234 234 244 256 242 236 239 246 245 244 243 243 238 236 238 242 248 251 255 258 261 258 260 261 260 258 257
318 317 311 304 293 286 284 289 289 282 278 274 270 267 250 251 254 257 246 235 226 231 239 246 242 241 245 243 247 243 244 244 241 240 245 250 250 253 256 257 257 260 261 260 259
318 316 313 303 292 286 283 277 280 282 278 272 271 268 268 252 250 250 255 253 237 229 231 234 246 246 247 247 246 247 247 246 245 244 246 245 246 250 254 255 258 259 257 253 253
319 314 312 303 293 285 282 280 279 278 278 276 268 266 264 263 261 248 249 252 249 250 245 242 240 246 247 244 243 246 242 244 246 247 248 249 251 251 255 254 250 256 263 260 254